User: anonymous   Login
Location: Dover
(39.1580°N, 75.5250°W)
Time: 22:36:21
(UTC-05:00)
Language:

Cosmos 1437 Rocket - Orbit

View from above orbital plane
View from above orbital plane
View from above satellite
View from above satellite

Ground track
Ground track

The orbit data is extracted from the following two-line orbital elements,

1 13771U 83003B   17021.07408810  .00000459  00000-0  26471-4 0  9994
2 13771  81.1351 172.4939 0042116 135.9301 224.5294 15.09559980851598
Epoch (UTC): 21 January 2017 01:46:41
Eccentricity: 0.0042116
inclination: 81.1351°
perigee height: 508 km
apogee height: 566 km
right ascension of ascending node: 172.4939°
argument of perigee: 135.9301°
revolutions per day: 15.09559980
mean anomaly at epoch: 224.5294°
orbit number at epoch: 85159

The dashed part of the orbit path shows where the satellite is in the earth's shadow,  

DLR